Wind_Speed
5 5 4 4 4 4 3 3 2 2 2 2 2 2 3 3 2 2 2 2 3 3 3 3 3 3 4 4 4 4 5 5 5 6 5 4 4 4 4 3 3 4 4
4 4 4 3 4 4 3 2 2 2 2 2 2 2 2 2 2 1 1 2 2 3 3 3 3 4 4 4 3 4 4 4 4 5 4 5 5 4 4 3 3 4 4
4 4 4 3 4 3 2 2 2 2 2 2 1 1 1 1 1 0 1 2 2 2 3 3 3 3 3 3 3 3 3 3 4 5 5 5 5 5 5 4 4 3 4
5 5 4 3 3 3 2 2 1 2 2 1 1 1 1 0 0 0 1 2 2 2 2 3 3 3 3 3 3 3 3 3 4 4 5 6 5 5 5 4 5 4 5
6 6 5 4 3 3 2 2 2 2 2 1 1 1 1 1 1 1 2 3 3 2 2 2 3 3 3 3 4 4 3 4 4 5 5 6 5 5 5 5 5 5 5
7 6 6 4 3 3 3 2 2 2 2 1 1 1 1 1 1 1 1 3 3 2 2 2 2 3 3 3 4 4 4 4 4 5 6 6 6 6 5 5 5 5 6
7 7 6 4 4 3 3 2 3 3 3 2 2 2 2 2 1 1 2 2 3 3 3 3 3 3 3 4 4 4 4 5 6 6 6 6 6 5 5 5 6 6 6
7 7 5 4 4 3 3 3 3 3 3 3 3 3 3 3 2 2 2 3 3 3 3 4 4 4 4 5 5 5 5 6 6 6 6 6 6 6 6 6 7 7 6
6 5 4 4 4 4 4 4 4 4 4 3 3 3 3 3 3 3 3 3 4 4 4 4 4 5 5 5 5 6 6 6 7 6 6 6 6 6 7 7 7 8 8
5 5 5 4 5 5 5 5 5 5 4 4 4 5 4 4 4 4 4 4 5 6 6 6 6 6 5 5 6 6 7 6 6 6 6 6 6 7 8 8 8 8 8
5 5 5 5 5 5 5 6 6 5 5 5 5 5 5 5 5 5 6 6 6 7 7 7 7 6 6 6 7 7 8 8 7 8 8 7 7 7 8 8 8 8 7
6 5 5 5 5 6 6 6 7 6 6 6 6 6 6 6 6 7 6 7 7 7 8 8 8 7 7 7 7 8 9 9 9 10 9 8 8 8 8 9 9 8 8
6 6 6 6 7 7 7 7 8 7 6 7 7 7 7 7 7 7 8 8 8 8 8 8 9 9 8 8 9 9 9 9 11 10 9 9 9 8 8 8 9 9 9
7 6 7 7 7 8 8 8 8 7 8 8 8 8 8 8 8 8 8 8 8 8 9 9 10 10 10 10 10 10 10 10 10 10 10 9 9 10 10 8 8 9 9
8 7 8 8 8 9 10 10 9 8 9 9 9 9 9 9 9 9 8 9 9 9 9 10 11 10 11 11 11 11 10 10 10 11 11 10 10 11 11 10 9 9 9
9 8 8 9 9 10 10 11 10 10 10 10 10 10 10 10 10 10 9 9 10 10 10 10 11 11 10 11 12 12 11 11 11 12 12 12 11 11 11 11 11 11 10
9 9 10 10 10 11 12 11 11 11 10 10 10 10 10 10 10 11 10 10 10 10 10 11 11 11 11 11 12 12 12 12 13 13 13 13 12 12 12 12 12 12 11
10 10 11 11 12 12 12 12 11 11 11 10 9 9 10 10 11 10 11 11 11 10 10 11 11 12 12 12 12 13 13 13 14 14 14 13 13 13 13 13 13 13 13
11 11 11 12 13 13 13 13 12 12 12 11 10 9 9 10 11 11 11 11 11 11 11 11 11 12 12 12 12 13 13 13 14 15 15 15 15 14 14 14 14 13 13
12 12 13 13 14 14 14 13 12 12 12 11 10 10 10 10 11 11 11 11 11 11 12 13 13 13 12 12 12 13 13 13 14 15 15 15 15 15 15 15 15 15 14
13 13 14 14 14 14 14 13 13 13 12 11 10 10 10 10 10 11 12 11 11 12 12 13 13 12 11 11 12 13 13 14 14 15 15 16 16 17 16 16 16 16 15
14 14 15 15 16 15 14 14 13 13 12 11 11 10 10 10 10 10 11 11 12 12 12 12 12 12 12 12 12 12 13 14 14 15 15 16 17 17 17 16 16 16 16
16 15 16 16 15 15 15 14 13 12 12 11 11 10 10 10 10 11 11 11 11 11 12 12 12 12 12 13 13 13 13 14 14 15 15 16 17 17 16 16 17 17 17
17 17 17 16 16 15 15 14 13 12 11 11 11 10 11 10 10 12 11 10 10 11 11 12 12 13 12 12 13 14 14 14 14 14 15 15 16 17 17 16 17 16 17
18 18 18 17 17 16 15 14 13 12 11 11 10 11 11 11 11 11 10 9 9 10 10 11 11 11 11 12 12 12 13 14 15 15 15 15 16 16 17 16 16 17 17
18 18 19 19 18 17 16 15 14 12 12 11 11 12 12 12 11 11 10 9 9 9 9 9 9 10 11 11 12 13 13 13 13 14 14 15 16 17 18 17 18 18 18
Wind_Direction
30 27 21 14 9 8 11 8 18 27 34 46 64 68 82 91 97 87 71 90 94 94 105 117 122 117 111 113 127 141 153 157 165 171 171 176 184 189 194 193 189 195 197
21 17 11 6 4 7 4 356 9 17 25 41 60 74 83 89 98 105 106 124 123 112 118 138 147 137 127 124 139 152 161 166 177 183 187 193 196 197 203 208 208 205 201
13 7 1 357 356 358 356 351 357 1 14 27 41 64 82 91 85 164 175 169 157 143 139 148 162 159 154 148 154 164 174 190 196 197 197 198 201 208 213 215 224 222 211
5 359 354 343 342 343 345 352 357 2 5 360 356 19 45 7 330 281 250 214 186 166 156 161 178 187 178 175 181 181 195 203 206 205 206 206 214 218 222 222 224 230 218
357 353 349 338 335 332 330 339 357 360 352 335 332 315 280 268 285 311 268 218 195 175 170 179 193 197 191 199 200 203 208 206 202 200 202 214 218 221 226 234 230 228 223
355 349 342 337 332 326 315 321 342 339 325 323 320 318 293 265 274 273 238 192 191 191 201 207 212 209 217 213 202 206 213 211 208 209 212 220 223 226 231 240 230 228 227
353 350 344 339 329 322 312 315 335 331 319 311 300 295 287 277 268 252 211 200 203 205 213 228 230 225 221 221 223 219 216 216 218 214 220 225 227 231 231 238 238 234 235
347 350 349 345 336 330 328 322 316 315 311 301 294 287 282 275 266 263 227 216 224 230 234 234 238 241 234 227 221 219 220 223 220 214 219 227 230 234 233 237 242 240 229
344 348 354 355 347 338 332 323 309 307 306 300 295 291 281 275 265 260 248 241 237 239 240 238 241 241 239 230 223 226 226 228 222 218 227 236 239 241 241 241 246 245 240
342 343 343 348 343 335 331 329 323 312 306 299 293 290 282 272 266 261 262 256 248 243 244 246 244 244 238 230 228 227 226 227 225 227 233 243 249 249 248 247 245 245 236
330 339 341 341 338 333 330 326 324 318 311 302 292 286 284 275 268 263 261 258 254 251 250 247 244 243 239 238 238 234 230 231 229 234 236 243 248 250 252 247 243 242 239
322 328 327 327 326 325 324 322 322 317 309 303 294 285 285 279 270 268 264 263 263 264 258 250 247 245 243 243 245 241 235 234 235 236 242 245 248 251 251 246 246 246 244
311 315 314 311 315 317 320 319 317 314 310 301 293 286 280 279 275 271 268 270 270 268 264 257 255 251 247 248 248 245 240 243 241 239 245 249 253 254 251 251 254 253 248
303 304 306 307 309 313 316 315 311 309 309 303 294 285 278 275 273 273 273 271 271 268 265 256 254 252 251 251 250 248 246 248 238 240 246 250 253 252 251 253 256 260 259
293 296 304 307 307 310 312 312 305 307 304 299 292 284 276 271 270 270 269 268 267 265 262 260 254 253 253 253 251 250 249 244 241 245 249 251 251 253 254 254 255 258 259
293 295 299 301 304 304 305 307 303 302 300 297 292 283 275 268 270 268 266 266 265 264 263 262 254 251 255 255 252 250 248 247 249 250 250 251 252 253 254 257 259 258 260
291 292 295 300 302 304 301 301 299 300 302 299 290 287 278 271 272 267 264 265 265 262 260 258 255 253 253 252 250 248 247 248 252 251 251 251 252 255 257 257 259 260 263
290 291 293 296 302 303 299 300 298 298 299 298 294 293 284 275 272 265 262 264 265 262 260 260 257 253 252 252 251 248 249 249 251 253 254 254 254 256 258 257 259 261 263
287 290 293 295 298 299 298 299 297 296 298 296 292 289 284 279 272 264 263 264 266 267 266 265 263 257 253 253 252 251 250 250 256 256 256 256 257 260 260 259 260 261 263
285 287 291 296 297 298 299 299 298 294 294 294 289 283 281 279 272 268 267 265 265 265 267 265 263 258 256 256 254 251 250 256 259 258 259 258 258 260 260 260 259 259 262
282 288 291 295 298 298 298 299 298 292 290 290 287 282 280 279 274 269 265 262 263 263 265 266 261 258 257 257 254 252 254 258 260 259 259 260 259 258 259 260 260 258 261
281 286 291 293 294 296 297 296 296 290 287 285 285 282 280 278 275 269 263 262 264 263 262 265 263 261 258 255 254 253 253 256 261 260 261 260 258 258 259 259 259 259 260
280 286 290 291 292 291 295 298 296 290 286 281 279 275 273 274 274 272 269 267 264 262 261 264 262 262 261 257 255 255 256 259 261 260 261 261 258 258 260 259 259 259 260
278 283 287 289 288 288 292 297 294 288 284 281 276 273 272 271 273 272 270 272 268 267 265 267 264 262 259 260 258 258 259 260 261 261 261 260 256 257 260 262 260 260 260
277 280 281 282 284 287 290 291 290 286 280 279 274 273 275 274 272 273 272 268 265 268 270 270 268 264 264 265 263 261 259 260 261 262 261 260 258 258 260 260 260 260 260
276 278 279 281 281 283 285 286 287 284 275 273 274 275 275 275 269 269 271 265 264 269 270 269 267 266 268 268 265 262 262 262 263 262 263 263 262 261 260 260 260 262 264
Height
5895 5893 5893 5892 5891 5891 5890 5890 5889 5888 5887 5887 5886 5886 5886 5885 5885 5885 5885 5885 5885 5885 5885 5884 5884 5885 5884 5885 5885 5885 5886 5886 5887 5888 5888 5889 5890 5890 5890 5890 5891 5891 5891
5894 5893 5892 5892 5891 5890 5890 5889 5888 5888 5887 5886 5886 5885 5885 5885 5885 5884 5884 5884 5884 5884 5885 5885 5885 5885 5885 5885 5885 5886 5886 5887 5887 5888 5888 5889 5889 5890 5890 5890 5890 5891 5891
5894 5893 5892 5891 5890 5890 5889 5888 5888 5887 5887 5886 5885 5885 5885 5884 5884 5884 5883 5883 5884 5884 5884 5885 5885 5885 5885 5885 5885 5886 5886 5887 5887 5887 5887 5888 5889 5889 5890 5890 5890 5890 5891
5893 5892 5891 5891 5890 5889 5889 5888 5887 5887 5886 5885 5885 5884 5884 5884 5883 5882 5882 5882 5883 5883 5884 5884 5884 5885 5885 5885 5885 5885 5886 5886 5886 5887 5887 5888 5888 5889 5889 5889 5889 5890 5890
5893 5892 5891 5890 5889 5889 5888 5888 5887 5886 5885 5885 5884 5883 5883 5883 5882 5881 5878 5879 5881 5882 5883 5884 5884 5884 5884 5885 5885 5886 5886 5886 5886 5886 5886 5887 5888 5888 5889 5889 5889 5889 5889
5892 5891 5890 5889 5889 5888 5888 5887 5886 5886 5885 5884 5883 5883 5882 5882 5881 5880 5878 5879 5881 5882 5883 5883 5883 5884 5884 5884 5884 5885 5885 5885 5885 5886 5886 5886 5887 5887 5888 5888 5888 5887 5887
5891 5890 5889 5889 5888 5887 5887 5886 5886 5885 5884 5883 5883 5882 5881 5881 5881 5880 5879 5880 5881 5881 5882 5882 5883 5883 5883 5883 5884 5884 5884 5885 5885 5885 5885 5885 5886 5886 5887 5887 5887 5887 5886
5891 5889 5888 5888 5887 5887 5886 5885 5885 5884 5883 5883 5882 5881 5881 5880 5880 5880 5880 5880 5881 5881 5881 5881 5882 5882 5882 5882 5882 5883 5883 5883 5883 5884 5884 5885 5885 5885 5885 5886 5886 5886 5885
5890 5889 5888 5887 5886 5885 5885 5884 5884 5883 5882 5882 5881 5880 5880 5879 5879 5879 5879 5880 5880 5880 5880 5880 5880 5881 5881 5881 5881 5882 5882 5882 5882 5883 5883 5884 5884 5884 5884 5884 5884 5884 5885
5889 5888 5887 5886 5885 5885 5884 5883 5883 5882 5881 5881 5880 5879 5879 5878 5878 5878 5878 5879 5879 5879 5879 5879 5879 5879 5879 5880 5880 5880 5881 5881 5881 5881 5882 5882 5883 5883 5883 5883 5883 5883 5883
5889 5888 5887 5886 5885 5884 5883 5882 5882 5881 5880 5879 5879 5878 5877 5877 5877 5877 5877 5877 5877 5877 5877 5877 5877 5878 5878 5878 5878 5879 5879 5880 5880 5880 5880 5881 5881 5881 5881 5881 5881 5881 5881
5888 5887 5886 5885 5884 5883 5882 5881 5880 5879 5879 5878 5877 5876 5876 5875 5875 5875 5875 5875 5875 5875 5875 5876 5876 5876 5876 5877 5877 5877 5878 5878 5878 5878 5879 5880 5880 5880 5880 5879 5880 5880 5880
5887 5886 5885 5884 5883 5882 5881 5880 5879 5878 5877 5876 5876 5875 5874 5874 5873 5873 5873 5873 5873 5873 5873 5874 5874 5874 5874 5875 5875 5875 5876 5876 5876 5876 5877 5878 5878 5878 5878 5878 5878 5878 5878
5886 5885 5884 5883 5882 5881 5879 5878 5877 5876 5875 5875 5874 5873 5872 5872 5872 5871 5871 5871 5871 5871 5871 5871 5872 5872 5872 5873 5873 5874 5874 5874 5874 5875 5875 5875 5876 5876 5876 5876 5876 5876 5875
5885 5883 5882 5881 5880 5879 5878 5876 5874 5873 5873 5872 5871 5870 5870 5869 5869 5869 5869 5869 5869 5869 5869 5869 5869 5869 5870 5870 5871 5871 5872 5872 5873 5873 5873 5873 5874 5874 5874 5874 5874 5874 5873
5883 5882 5881 5880 5878 5877 5876 5874 5873 5871 5870 5869 5869 5868 5867 5867 5867 5867 5867 5866 5866 5866 5866 5866 5866 5867 5867 5868 5868 5869 5869 5870 5870 5870 5871 5871 5871 5872 5872 5872 5872 5872 5871
5881 5880 5879 5878 5876 5875 5874 5872 5871 5869 5868 5866 5865 5865 5864 5864 5864 5864 5864 5863 5863 5864 5864 5864 5864 5864 5865 5865 5866 5866 5867 5867 5868 5868 5868 5868 5869 5869 5869 5869 5869 5869 5869
5879 5878 5877 5876 5874 5873 5871 5870 5868 5867 5866 5864 5863 5862 5862 5861 5861 5861 5861 5861 5861 5861 5861 5861 5862 5862 5862 5862 5863 5863 5864 5864 5865 5865 5865 5865 5866 5866 5866 5866 5866 5866 5866
5878 5876 5875 5874 5873 5871 5869 5867 5866 5864 5863 5862 5861 5860 5860 5859 5859 5859 5859 5859 5859 5859 5859 5859 5859 5859 5859 5859 5859 5860 5861 5861 5862 5862 5862 5862 5863 5863 5863 5863 5863 5863 5863
5875 5874 5873 5872 5870 5868 5867 5865 5863 5862 5860 5859 5859 5858 5857 5857 5856 5856 5856 5856 5856 5856 5856 5856 5856 5856 5856 5856 5856 5857 5858 5858 5858 5859 5859 5859 5859 5860 5860 5860 5860 5860 5860
5873 5872 5871 5869 5868 5866 5864 5862 5861 5859 5858 5857 5856 5855 5855 5854 5854 5854 5854 5854 5853 5853 5853 5853 5853 5853 5853 5853 5854 5854 5854 5854 5855 5855 5855 5855 5856 5856 5856 5856 5856 5856 5856
5870 5869 5868 5866 5865 5863 5861 5860 5858 5856 5855 5854 5854 5853 5852 5852 5852 5852 5851 5851 5851 5851 5850 5850 5850 5850 5850 5850 5850 5851 5851 5852 5851 5851 5851 5852 5852 5852 5852 5852 5853 5853 5853
5866 5866 5864 5863 5861 5860 5858 5857 5855 5854 5853 5852 5851 5851 5850 5850 5849 5849 5849 5848 5848 5848 5847 5847 5847 5847 5847 5847 5847 5848 5848 5848 5848 5848 5848 5848 5848 5848 5849 5849 5849 5849 5849
5863 5862 5861 5860 5858 5857 5855 5854 5853 5851 5850 5849 5849 5848 5848 5847 5847 5846 5846 5845 5845 5845 5845 5844 5844 5844 5844 5844 5844 5844 5844 5844 5844 5844 5844 5844 5844 5845 5845 5845 5845 5845 5846
5859 5858 5857 5856 5855 5854 5852 5851 5850 5849 5848 5847 5846 5846 5845 5845 5844 5844 5843 5843 5842 5842 5842 5842 5841 5841 5841 5841 5840 5840 5840 5840 5840 5840 5840 5841 5841 5841 5841 5841 5841 5841 5842
5855 5854 5853 5852 5851 5850 5849 5848 5847 5846 5845 5844 5844 5843 5843 5842 5841 5841 5841 5840 5840 5840 5839 5839 5838 5838 5838 5837 5837 5837 5836 5836 5836 5836 5836 5836 5837 5837 5837 5837 5837 5837 5837